Location: Spangle
(47.4302°N, 117.3779°W)
Time: 14:36:25
(UTC+00:00)

Envisat - Pass Details

Date: 18 April 2026
Orbit: 761 x 762 km, 98.4° (Epoch: 15 May)

Event Time Altitude Azimuth Distance (km) Brightness Sun altitude
Rises 11:04:40 0° 10° (N) 3,236 7.0 -17.3°
Reaches altitude 10° 11:07:01 10° 5° (N) 2,306 6.1 -17.0°
Maximum altitude 11:11:56 53° 290° (WNW) 934 3.2 -16.3°
Enters shadow 11:14:36 26° 225° (SW) 1,474 3.9 -15.9°
